Miscellaneous Local Product
Issued by NWS North Platte, NE

Home | Current Version | Previous Version | Text Only | Print | Product List | Glossary On
Versions: 1 2 3 4 5 6 7 8 9 10 11 12 13 14 15 16 17 18 19 20 21 22 23 24 25 26 27 28 29 30 31 32 33 34 35 36 37 38 39 40 41 42 43 44 45 46 47 48 49 50
801
AXUS43 KLBF 210310
MISLBF


WESTERN AND NORTH CENTRAL NEBRASKA HOURLY WEATHER ROUNDUP
NATIONAL WEATHER SERVICE NORTH PLATTE NE
1000 PM CDT WED SEP 20 2017

NOTE: "FAIR" INDICATES FEW OR NO CLOUDS BELOW 12,000 FEET WITH NO
SIGNIFICANT WEATHER AND/OR OBSTRUCTIONS TO VISIBILITY.

NOTE: STATIONS NOT REPORTING VARIABLES SUCH AS SKY/WEATHER OR
PRESSURE ARE PROVIDED BY RAWS AND APRS NETWORKS AND ARE NOT UNDER
NATIONAL WEATHER SERVICE QUALITY CONTROL.

...OBSERVATIONS IN AND NEAR THE EASTERN PANHANDLE OF NEBRASKA...

CITY           SKY/WX    TMP DP  RH WIND       PRES   REMARKS
PINE RIDGE     CLEAR     68  34  28 S16G28    29.81R
GORDON         FAIR      60  36  40 SE7       29.85R
CHADRON        CLEAR     66  32  28 S16       29.79R
ALLIANCE       CLEAR     54  37  52 SE10      29.85S
SIDNEY         CLEAR     62  31  31 S17       29.88R
CRESCENT LAKE    N/A     62  35  37 SE7G17      N/A
$$

...OBSERVATIONS IN NORTHERN NEBRASKA AND FAR SOUTHERN SOUTH DAKOTA...

CITY           SKY/WX    TMP DP  RH WIND       PRES   REMARKS
WINNER         FAIR      63  40  42 S13       29.83S
VALENTINE      CLEAR     63  37  38 S12       29.86R
THEDFORD       CLEAR     60  40  49 SE8       29.90R
AINSWORTH      CLEAR     56  43  61 S8        29.89R
O`NEILL        CLEAR     61  48  62 SE8       29.90S
ORD            CLEAR     53  47  79 CALM      29.89S
BROKEN BOW     CLEAR     52  42  69 CALM      29.91R
VALENTINE NWR    N/A     55  39  54 SE6         N/A
HALSEY           N/A     61  39  44 SE6         N/A
BUTTE            N/A     60  46  59 SE8G15      N/A
CHAMBERS         N/A     57  45  65 CALM        N/A
EWING            N/A     56  48  74 CALM        N/A
$$

...OBSERVATIONS IN SOUTHWEST NEBRASKA AND FAR NORTHEAST COLORADO...

CITY           SKY/WX    TMP DP  RH WIND       PRES   REMARKS
WRAY           FAIR      61  32  33 SE9       29.89S
IMPERIAL       CLEAR     55  35  47 SE8       29.88S
OGALLALA       CLEAR     63  34  34 SE6       29.88S
NORTH PLATTE   CLEAR     54  44  69 E9        29.90R
MCCOOK         CLEAR     60  39  45 SE8       29.89S
LEXINGTON      CLEAR     58  45  61 CALM      29.90S
STAPLETON        N/A     60  42  51 CALM        N/A
GOTHENBURG       N/A     60  43  54 CALM        N/A
CALLAWAY         N/A     53  47  80 SE7         N/A
$$

...OBSERVATIONS IN CENTRAL LINCOLN COUNTY AREA...

CITY           SKY/WX    TMP DP  RH WIND       PRES   REMARKS
N.P. AIRPORT   CLEAR     54  44  69 E9        29.90R
N.P. DOWNTOWN    N/A     61  43  51 CALM        N/A
N.P. SOUTHEAST   N/A     60  42  52 SE3         N/A
N.P. HILLCREST   N/A     62  41  46 SE10        N/A
$$

...SOME OBSERVATIONS FROM AROUND THE REGION...

CITY           SKY/WX    TMP DP  RH WIND       PRES   REMARKS
DENVER         CLEAR     62  29  28 S13       29.86R
LIMON          CLEAR     57  31  37 SE12      29.93R
ASPEN          CLEAR     55  29  36 S6        30.03R
LARAMIE        CLEAR     51  29  42 SE10      29.93S
CASPER         CLOUDY    54  33  45 SE5       29.82R
CHEYENNE       CLEAR     58  29  33 SE10      29.91R
SCOTTSBLUFF    CLEAR     62  35  36 E15       29.83R
GRAND ISLAND   CLEAR     59  51  75 E5        29.91R
OMAHA          CLEAR     61  54  77 N7        29.89R
SIOUX FALLS    CLEAR     54  50  86 CALM      29.91R
PIERRE         CLEAR     60  35  39 SE8       29.78R
BISMARCK       CLEAR     53  42  66 SE8       29.74R
KANSAS CITY    PTCLDY    79  74  84 SE6       29.84R
HILL CITY      CLEAR     62  37  39 E5        29.89R
WICHITA        MOCLDY    82  72  71 SE10      29.81R
DODGE CITY     CLEAR     66  47  50 E7        29.88R
OKLAHOMA CITY  PTCLDY    82  71  69 S12       29.85R
DALLAS         PTCLDY    89  70  53 S16       29.85R HX  94
AMARILLO       CLEAR     66  44  45 E7        29.92R
$$




USA.gov is the U.S. government's official web portal to all federal, state and local government web resources and services.